Location: Eschertshofen
(49.3064°N, 11.5756°E)
Time: 23:26:10
(UTC+00:00)

Cosmos 2263 Rocket - Pass Details

Date: 18 September 2020
Orbit: 822 x 850 km, 71.0° (Epoch: 31 October)

Event Time Altitude Azimuth Distance (km) Brightness Sun altitude
Rises 17:48:05 0° 192° (SSW) 3,343 5.4 -5.4°
Reaches altitude 10° 17:50:31 10° 188° (S) 2,416 4.6 -5.8°
Maximum altitude 17:55:55 56° 112° (ESE) 978 2.3 -6.7°
Drops below altitude 10° 18:01:23 10° 35° (NE) 2,445 4.4 -7.6°
Sets 18:03:52 0° 32° (NNE) 3,387 5.1 -8.0°
